| time (UTC) | temp C | wind direction | speed KPH | gust KPH | rain 1hr cm | rain 24hr cm | rain mn cm | humidity % | barometer mb |
| 20260509024117 | 22 | 167 | 1.6 | 4.8 | 0.00 | 0.00 | 0.00 | 49 | 1022.0 |
| 20260509023616 | 22 | 161 | 6.4 | 14.5 | 0.00 | 0.00 | 0.00 | 47 | 1022.0 |
| 20260509023121 | 23 | 162 | 6.4 | 8.0 | 0.00 | 0.00 | 0.00 | 46 | 1022.0 |
| 20260509022616 | 22 | 79 | 6.4 | 6.4 | 0.00 | 0.00 | 0.00 | 47 | 1022.0 |
| 20260509022115 | 22 | 124 | 0.0 | 4.8 | 0.00 | 0.00 | 0.00 | 49 | 1022.0 |
| 20260509021615 | 22 | 83 | 8.0 | 8.0 | 0.00 | 0.00 | 0.00 | 49 | 1023.0 |
| 20260509021117 | 22 | 98 | 11.3 | 14.5 | 0.00 | 0.00 | 0.00 | 47 | 1023.0 |
| 20260509020616 | 22 | 93 | 4.8 | 14.5 | 0.00 | 0.00 | 0.00 | 47 | 1023.0 |
| 20260509020116 | 23 | 117 | 4.8 | 16.1 | 0.00 | 0.00 | 0.00 | 47 | 1023.0 |
| 20260509015615 | 22 | 251 | 1.6 | 8.0 | 0.00 | 0.00 | 0.00 | 47 | 1023.0 |
| 20260509015116 | 22 | 287 | 1.6 | 8.0 | 0.00 | 0.00 | 0.00 | 49 | 1023.0 |
| 20260509014616 | 22 | 245 | 4.8 | 8.0 | 0.00 | 0.00 | 0.00 | 47 | 1023.0 |
| 20260509014116 | 22 | 172 | 3.2 | 8.0 | 0.00 | 0.00 | 0.00 | 48 | 1023.0 |
| 20260509013616 | 22 | 146 | 6.4 | 8.0 | 0.00 | 0.00 | 0.00 | 49 | 1023.0 |
| 20260509013116 | 21 | 125 | 8.0 | 16.1 | 0.00 | 0.00 | 0.00 | 50 | 1023.0 |
| 20260509012616 | 22 | 93 | 9.7 | 16.1 | 0.00 | 0.00 | 0.00 | 48 | 1023.0 |
| 20260509012116 | 21 | 155 | 4.8 | 8.0 | 0.00 | 0.00 | 0.00 | 48 | 1023.0 |
| 20260509011615 | 21 | 202 | 4.8 | 4.8 | 0.00 | 0.00 | 0.00 | 48 | 1024.0 |
| 20260509011117 | 21 | 126 | 4.8 | 6.4 | 0.00 | 0.00 | 0.00 | 50 | 1024.0 |
| 20260509010615 | 20 | 180 | 0.0 | 6.4 | 0.00 | 0.00 | 0.00 | 49 | 1023.0 |
| 20260509010116 | 20 | 305 | 4.8 | 6.4 | 0.00 | 0.00 | 0.00 | 50 | 1024.0 |
| 20260509005615 | 20 | 167 | 3.2 | 4.8 | 0.00 | 0.00 | 0.00 | 51 | 1024.0 |
| 20260509005115 | 20 | 142 | 3.2 | 6.4 | 0.00 | 0.00 | 0.00 | 51 | 1024.0 |
| 20260509004617 | 20 | 125 | 1.6 | 8.0 | 0.00 | 0.00 | 0.00 | 50 | 1024.0 |
| 20260509004116 | 20 | 232 | 1.6 | 8.0 | 0.00 | 0.00 | 0.00 | 50 | 1024.0 |
| 20260509003615 | 20 | 197 | 4.8 | 8.0 | 0.00 | 0.00 | 0.00 | 50 | 1024.0 |
| 20260509003116 | 20 | 204 | 1.6 | 9.7 | 0.00 | 0.00 | 0.00 | 49 | 1024.0 |
| 20260509002615 | 19 | 158 | 1.6 | 6.4 | 0.00 | 0.00 | 0.00 | 51 | 1024.0 |
| 20260509002115 | 19 | 268 | 4.8 | 6.4 | 0.00 | 0.00 | 0.00 | 51 | 1024.0 |
| 20260509001616 | 18 | 172 | 0.0 | 6.4 | 0.00 | 0.00 | 0.00 | 52 | 1024.0 |
| 20260509001116 | 18 | 242 | 6.4 | 8.0 | 0.00 | 0.00 | 0.00 | 52 | 1024.0 |
| 20260509000616 | 19 | 238 | 4.8 | 6.4 | 0.00 | 0.00 | 0.00 | 50 | 1024.0 |
| 20260509000116 | 18 | 267 | 3.2 | 6.4 | 0.00 | 0.00 | 0.00 | 51 | 1024.0 |
| 20260508235618 | 18 | 168 | 8.0 | 12.9 | 0.00 | 0.00 | 0.00 | 49 | 1024.0 |
| 20260508235115 | 18 | 141 | 4.8 | 9.7 | 0.00 | 0.00 | 0.00 | 51 | 1024.0 |
| 20260508234615 | 18 | 146 | 6.4 | 12.9 | 0.00 | 0.00 | 0.00 | 51 | 1024.0 |
| 20260508234116 | 18 | 243 | 0.0 | 11.3 | 0.00 | 0.00 | 0.00 | 50 | 1024.0 |
| 20260508233615 | 18 | 164 | 4.8 | 8.0 | 0.00 | 0.00 | 0.00 | 51 | 1024.0 |
| 20260508233115 | 17 | 226 | 11.3 | 12.9 | 0.00 | 0.00 | 0.00 | 52 | 1024.0 |
| 20260508232615 | 17 | 212 | 11.3 | 12.9 | 0.00 | 0.00 | 0.00 | 53 | 1024.0 |
| 20260508232116 | 17 | 218 | 6.4 | 8.0 | 0.00 | 0.00 | 0.00 | 52 | 1024.0 |
| 20260508231615 | 16 | 189 | 8.0 | 9.7 | 0.00 | 0.00 | 0.00 | 53 | 1024.0 |
| 20260508231118 | 16 | 194 | 9.7 | 11.3 | 0.00 | 0.00 | 0.00 | 54 | 1024.0 |
| 20260508230616 | 16 | 155 | 4.8 | 9.7 | 0.00 | 0.00 | 0.00 | 54 | 1024.0 |
| 20260508230115 | 16 | 181 | 9.7 | 11.3 | 0.00 | 0.00 | 0.00 | 53 | 1023.0 |
| 20260508225616 | 16 | 158 | 6.4 | 12.9 | 0.00 | 0.00 | 0.00 | 53 | 1023.0 |
| 20260508225116 | 16 | 264 | 4.8 | 9.7 | 0.00 | 0.00 | 0.00 | 54 | 1024.0 |
| 20260508224617 | 15 | 192 | 6.4 | 11.3 | 0.00 | 0.00 | 0.00 | 55 | 1023.0 |
| 20260508224115 | 15 | 146 | 3.2 | 8.0 | 0.00 | 0.00 | 0.00 | 55 | 1023.0 |
| 20260508223616 | 15 | 103 | 3.2 | 8.0 | 0.00 | 0.00 | 0.00 | 56 | 1023.0 |
| 20260508223115 | 15 | 161 | 4.8 | 9.7 | 0.00 | 0.00 | 0.00 | 57 | 1023.0 |
| 20260508222615 | 15 | 170 | 4.8 | 8.0 | 0.00 | 0.00 | 0.00 | 58 | 1023.0 |
| 20260508222117 | 15 | 126 | 3.2 | 4.8 | 0.00 | 0.00 | 0.00 | 58 | 1023.0 |
| 20260508221615 | 14 | 253 | 3.2 | 9.7 | 0.00 | 0.00 | 0.00 | 58 | 1023.0 |
| 20260508221115 | 14 | 158 | 1.6 | 8.0 | 0.00 | 0.00 | 0.00 | 59 | 1023.0 |
| 20260508220617 | 14 | 172 | 3.2 | 8.0 | 0.00 | 0.00 | 0.00 | 59 | 1023.0 |
| 20260508220117 | 14 | 104 | 1.6 | 8.0 | 0.00 | 0.00 | 0.00 | 60 | 1023.0 |
| 20260508215617 | 13 | 222 | 1.6 | 4.8 | 0.00 | 0.00 | 0.00 | 60 | 1023.0 |
| 20260508215116 | 13 | 215 | 4.8 | 6.4 | 0.00 | 0.00 | 0.00 | 60 | 1023.0 |
| 20260508214615 | 13 | 188 | 4.8 | 4.8 | 0.00 | 0.00 | 0.00 | 60 | 1023.0 |
| 20260508214115 | 13 | 159 | 4.8 | 4.8 | 0.00 | 0.00 | 0.00 | 60 | 1023.0 |
| 20260508213615 | 13 | 180 | 3.2 | 6.4 | 0.00 | 0.00 | 0.00 | 60 | 1023.0 |
| 20260508213115 | 13 | 193 | 1.6 | 4.8 | 0.00 | 0.00 | 0.00 | 60 | 1022.0 |
| 20260508212617 | 13 | 68 | 0.0 | 6.4 | 0.00 | 0.00 | 0.00 | 61 | 1022.0 |
| 20260508212117 | 12 | 137 | 1.6 | 4.8 | 0.00 | 0.00 | 0.00 | 62 | 1023.0 |
| 20260508211616 | 12 | 176 | 0.0 | 3.2 | 0.00 | 0.00 | 0.00 | 63 | 1022.0 |
| 20260508211115 | 12 | 205 | 0.0 | 4.8 | 0.00 | 0.00 | 0.00 | 63 | 1022.0 |
| 20260508210616 | 12 | 161 | 3.2 | 4.8 | 0.00 | 0.00 | 0.00 | 64 | 1022.0 |
| 20260508210116 | 12 | 85 | 3.2 | 6.4 | 0.00 | 0.00 | 0.00 | 65 | 1022.0 |
| 20260508205616 | 11 | 290 | 1.6 | 3.2 | 0.00 | 0.00 | 0.00 | 66 | 1022.0 |
| 20260508205116 | 11 | 124 | 1.6 | 4.8 | 0.00 | 0.00 | 0.00 | 66 | 1022.0 |
| 20260508204617 | 11 | 155 | 0.0 | 4.8 | 0.00 | 0.00 | 0.00 | 66 | 1022.0 |
| 20260508204117 | 11 | 180 | 1.6 | 4.8 | 0.00 | 0.00 | 0.00 | 66 | 1022.0 |
| 20260508203615 | 11 | 220 | 1.6 | 4.8 | 0.00 | 0.00 | 0.00 | 66 | 1022.0 |
| 20260508203115 | 11 | 160 | 4.8 | 4.8 | 0.00 | 0.00 | 0.00 | 66 | 1022.0 |
| 20260508202618 | 11 | 169 | 1.6 | 8.0 | 0.00 | 0.00 | 0.00 | 66 | 1022.0 |
| 20260508202116 | 11 | 135 | 1.6 | 3.2 | 0.00 | 0.00 | 0.00 | 65 | 1022.0 |
| 20260508201615 | 11 | 194 | 0.0 | 4.8 | 0.00 | 0.00 | 0.00 | 65 | 1022.0 |
| 20260508201115 | 11 | 183 | 0.0 | 6.4 | 0.00 | 0.00 | 0.00 | 65 | 1022.0 |
| 20260508200617 | 11 | 153 | 3.2 | 6.4 | 0.00 | 0.00 | 0.00 | 64 | 1022.0 |
| 20260508200115 | 11 | 205 | 0.0 | 4.8 | 0.00 | 0.00 | 0.00 | 64 | 1022.0 |
| 20260508195617 | 11 | 141 | 4.8 | 4.8 | 0.00 | 0.00 | 0.00 | 64 | 1022.0 |
| 20260508195117 | 11 | 160 | 3.2 | 4.8 | 0.00 | 0.00 | 0.00 | 63 | 1021.0 |
| 20260508194617 | 11 | 179 | 3.2 | 4.8 | 0.00 | 0.00 | 0.00 | 63 | 1021.0 |
| 20260508194115 | 12 | 146 | 3.2 | 8.0 | 0.00 | 0.00 | 0.00 | 62 | 1021.0 |
| 20260508193617 | 12 | 151 | 3.2 | 6.4 | 0.00 | 0.00 | 0.00 | 62 | 1021.0 |
| 20260508193117 | 12 | 173 | 3.2 | 8.0 | 0.00 | 0.00 | 0.00 | 62 | 1021.0 |
| 20260508192617 | 12 | 125 | 1.6 | 4.8 | 0.00 | 0.00 | 0.00 | 61 | 1021.0 |
| 20260508192117 | 12 | 222 | 1.6 | 4.8 | 0.00 | 0.00 | 0.00 | 60 | 1021.0 |
| 20260508191617 | 12 | 158 | 1.6 | 6.4 | 0.00 | 0.00 | 0.00 | 60 | 1021.0 |
| 20260508191117 | 12 | 221 | 1.6 | 6.4 | 0.00 | 0.00 | 0.00 | 59 | 1021.0 |
| 20260508190616 | 12 | 241 | 0.0 | 3.2 | 0.00 | 0.00 | 0.00 | 59 | 1021.0 |
| 20260508190115 | 12 | 165 | 3.2 | 6.4 | 0.00 | 0.00 | 0.00 | 58 | 1021.0 |
| 20260508185615 | 12 | 202 | 0.0 | 8.0 | 0.00 | 0.00 | 0.00 | 59 | 1021.0 |
| 20260508185115 | 12 | 171 | 3.2 | 11.3 | 0.00 | 0.00 | 0.00 | 59 | 1021.0 |
| 20260508184615 | 12 | 112 | 1.6 | 4.8 | 0.00 | 0.00 | 0.00 | 60 | 1021.0 |
| 20260508184115 | 12 | 214 | 0.0 | 3.2 | 0.00 | 0.00 | 0.00 | 60 | 1021.0 |
| 20260508183617 | 12 | 170 | 0.0 | 4.8 | 0.00 | 0.00 | 0.00 | 60 | 1021.0 |
| 20260508183118 | 12 | 209 | 0.0 | 3.2 | 0.00 | 0.00 | 0.00 | 61 | 1021.0 |
| 20260508182616 | 12 | 203 | 3.2 | 3.2 | 0.00 | 0.00 | 0.00 | 61 | 1021.0 |
| 20260508182116 | 12 | 190 | 1.6 | 6.4 | 0.00 | 0.00 | 0.00 | 60 | 1021.0 |
| 20260508181617 | 12 | 211 | 0.0 | 4.8 | 0.00 | 0.00 | 0.00 | 60 | 1021.0 |
| 20260508181116 | 12 | 212 | 3.2 | 4.8 | 0.00 | 0.00 | 0.00 | 61 | 1021.0 |
| 20260508180617 | 12 | 142 | 0.0 | 4.8 | 0.00 | 0.00 | 0.00 | 61 | 1021.0 |
| 20260508180116 | 12 | 149 | 0.0 | 4.8 | 0.00 | 0.00 | 0.00 | 61 | 1021.0 |
| 20260508175618 | 12 | 189 | 3.2 | 4.8 | 0.00 | 0.00 | 0.00 | 61 | 1021.0 |
| 20260508175116 | 12 | 151 | 1.6 | 4.8 | 0.00 | 0.00 | 0.00 | 60 | 1021.0 |
| 20260508174615 | 12 | 324 | 1.6 | 6.4 | 0.00 | 0.00 | 0.00 | 60 | 1021.0 |
| 20260508174116 | 12 | 134 | 3.2 | 6.4 | 0.00 | 0.00 | 0.00 | 60 | 1021.0 |
| 20260508173618 | 12 | 179 | 1.6 | 4.8 | 0.00 | 0.00 | 0.00 | 60 | 1021.0 |
| 20260508173116 | 12 | 213 | 3.2 | 4.8 | 0.00 | 0.00 | 0.00 | 61 | 1021.0 |
| 20260508172616 | 12 | 105 | 4.8 | 4.8 | 0.00 | 0.00 | 0.00 | 60 | 1021.0 |
| 20260508172116 | 12 | 180 | 4.8 | 9.7 | 0.00 | 0.00 | 0.00 | 60 | 1021.0 |
| 20260508171615 | 12 | 220 | 3.2 | 4.8 | 0.00 | 0.00 | 0.00 | 60 | 1021.0 |
| 20260508171117 | 12 | 47 | 0.0 | 6.4 | 0.00 | 0.00 | 0.00 | 60 | 1021.0 |
| 20260508170616 | 12 | 57 | 0.0 | 3.2 | 0.00 | 0.00 | 0.00 | 60 | 1020.0 |
| 20260508170116 | 12 | 177 | 4.8 | 6.4 | 0.00 | 0.00 | 0.00 | 59 | 1021.0 |
| 20260508165616 | 12 | 160 | 0.0 | 6.4 | 0.00 | 0.00 | 0.00 | 59 | 1021.0 |
| 20260508165116 | 12 | 167 | 4.8 | 6.4 | 0.00 | 0.00 | 0.00 | 59 | 1021.0 |
| 20260508164616 | 12 | 148 | 4.8 | 6.4 | 0.00 | 0.00 | 0.00 | 59 | 1021.0 |
| 20260508164118 | 12 | 169 | 6.4 | 8.0 | 0.00 | 0.00 | 0.00 | 58 | 1020.0 |
| 20260508163618 | 12 | 181 | 3.2 | 6.4 | 0.00 | 0.00 | 0.00 | 58 | 1021.0 |
| 20260508163120 | 12 | 123 | 3.2 | 4.8 | 0.00 | 0.00 | 0.00 | 58 | 1021.0 |
| 20260508162616 | 12 | 137 | 4.8 | 6.4 | 0.00 | 0.00 | 0.00 | 58 | 1021.0 |
| 20260508162116 | 12 | 80 | 0.0 | 3.2 | 0.00 | 0.00 | 0.00 | 58 | 1021.0 |
| 20260508161617 | 12 | 200 | 0.0 | 3.2 | 0.00 | 0.00 | 0.00 | 58 | 1020.0 |
| 20260508161116 | 12 | 145 | 4.8 | 6.4 | 0.00 | 0.00 | 0.00 | 59 | 1020.0 |
| 20260508160615 | 12 | 23 | 3.2 | 4.8 | 0.00 | 0.00 | 0.00 | 58 | 1020.0 |
| 20260508160116 | 12 | 67 | 1.6 | 6.4 | 0.00 | 0.00 | 0.00 | 59 | 1020.0 |
| 20260508155616 | 12 | 64 | 3.2 | 4.8 | 0.00 | 0.00 | 0.00 | 58 | 1020.0 |
| 20260508155116 | 12 | 217 | 4.8 | 4.8 | 0.00 | 0.00 | 0.00 | 56 | 1020.0 |
| 20260508154616 | 12 | 148 | 3.2 | 4.8 | 0.00 | 0.00 | 0.00 | 56 | 1020.0 |
| 20260508154116 | 12 | 130 | 1.6 | 6.4 | 0.00 | 0.00 | 0.00 | 58 | 1020.0 |
| 20260508153616 | 11 | 179 | 4.8 | 4.8 | 0.00 | 0.00 | 0.00 | 60 | 1020.0 |
| 20260508153116 | 11 | 115 | 3.2 | 4.8 | 0.00 | 0.00 | 0.00 | 61 | 1020.0 |
| 20260508152615 | 11 | 61 | 3.2 | 6.4 | 0.00 | 0.00 | 0.00 | 61 | 1020.0 |
| 20260508152118 | 12 | 44 | 3.2 | 4.8 | 0.00 | 0.00 | 0.00 | 60 | 1020.0 |
| 20260508151616 | 12 | 128 | 4.8 | 6.4 | 0.00 | 0.00 | 0.00 | 60 | 1020.0 |
| 20260508151115 | 12 | 91 | 1.6 | 4.8 | 0.00 | 0.00 | 0.00 | 59 | 1020.0 |
| 20260508150623 | 12 | 54 | 6.4 | 6.4 | 0.00 | 0.00 | 0.00 | 58 | 1020.0 |
| 20260508150117 | 12 | 135 | 1.6 | 6.4 | 0.00 | 0.00 | 0.00 | 57 | 1020.0 |
| 20260508145616 | 12 | 38 | 4.8 | 6.4 | 0.00 | 0.00 | 0.00 | 55 | 1020.0 |
| 20260508145116 | 12 | 159 | 1.6 | 6.4 | 0.00 | 0.00 | 0.00 | 56 | 1020.0 |
| 20260508144618 | 13 | 183 | 1.6 | 6.4 | 0.00 | 0.00 | 0.00 | 55 | 1020.0 |
| 20260508144116 | 13 | 195 | 3.2 | 4.8 | 0.00 | 0.00 | 0.00 | 55 | 1020.0 |
| 20260508143616 | 13 | 208 | 3.2 | 8.0 | 0.00 | 0.00 | 0.00 | 55 | 1020.0 |
| 20260508143116 | 13 | 58 | 0.0 | 4.8 | 0.00 | 0.00 | 0.00 | 55 | 1020.0 |
| 20260508142617 | 13 | 193 | 4.8 | 8.0 | 0.00 | 0.00 | 0.00 | 54 | 1020.0 |
| 20260508142116 | 13 | 140 | 0.0 | 8.0 | 0.00 | 0.00 | 0.00 | 54 | 1020.0 |
| 20260508141616 | 13 | 169 | 3.2 | 9.7 | 0.00 | 0.00 | 0.00 | 55 | 1020.0 |
| 20260508141118 | 13 | 111 | 3.2 | 8.0 | 0.00 | 0.00 | 0.00 | 55 | 1020.0 |
| 20260508140616 | 13 | 175 | 4.8 | 6.4 | 0.00 | 0.00 | 0.00 | 56 | 1020.0 |
| 20260508140116 | 13 | 63 | 3.2 | 4.8 | 0.00 | 0.00 | 0.00 | 56 | 1020.0 |
| 20260508135616 | 13 | 178 | 4.8 | 6.4 | 0.00 | 0.00 | 0.00 | 56 | 1020.0 |
| 20260508135116 | 13 | 115 | 4.8 | 8.0 | 0.00 | 0.00 | 0.00 | 56 | 1020.0 |
| 20260508134618 | 13 | 168 | 3.2 | 4.8 | 0.00 | 0.00 | 0.00 | 56 | 1020.0 |
| 20260508134117 | 13 | 171 | 1.6 | 11.3 | 0.00 | 0.00 | 0.00 | 56 | 1020.0 |
| 20260508133616 | 13 | 151 | 4.8 | 8.0 | 0.00 | 0.00 | 0.00 | 55 | 1020.0 |
| 20260508133117 | 13 | 133 | 3.2 | 4.8 | 0.00 | 0.00 | 0.00 | 55 | 1020.0 |
| 20260508132616 | 13 | 138 | 3.2 | 8.0 | 0.00 | 0.00 | 0.00 | 54 | 1020.0 |
| 20260508132115 | 13 | 164 | 6.4 | 8.0 | 0.00 | 0.00 | 0.00 | 54 | 1020.0 |
| 20260508131617 | 13 | 356 | 4.8 | 8.0 | 0.00 | 0.00 | 0.00 | 54 | 1020.0 |
| 20260508131116 | 14 | 145 | 1.6 | 4.8 | 0.00 | 0.00 | 0.00 | 54 | 1020.0 |
| 20260508130615 | 14 | 144 | 3.2 | 8.0 | 0.00 | 0.00 | 0.00 | 54 | 1020.0 |
| 20260508130115 | 14 | 162 | 1.6 | 3.2 | 0.00 | 0.00 | 0.00 | 54 | 1020.0 |
| 20260508125615 | 14 | 188 | 4.8 | 6.4 | 0.00 | 0.00 | 0.00 | 57 | 1020.0 |
| 20260508125117 | 14 | 197 | 1.6 | 4.8 | 0.00 | 0.00 | 0.00 | 56 | 1020.0 |
| 20260508124618 | 13 | 142 | 4.8 | 4.8 | 0.00 | 0.00 | 0.00 | 55 | 1020.0 |
| 20260508124118 | 14 | 28 | 3.2 | 6.4 | 0.00 | 0.00 | 0.00 | 55 | 1020.0 |
| 20260508123618 | 14 | 96 | 0.0 | 4.8 | 0.00 | 0.00 | 0.00 | 55 | 1020.0 |
| 20260508123116 | 13 | 201 | 4.8 | 8.0 | 0.00 | 0.00 | 0.00 | 54 | 1020.0 |
| 20260508122615 | 13 | 138 | 0.0 | 3.2 | 0.00 | 0.00 | 0.00 | 53 | 1020.0 |
| 20260508122119 | 14 | 143 | 1.6 | 4.8 | 0.00 | 0.00 | 0.00 | 52 | 1020.0 |
| 20260508121618 | 15 | 93 | 4.8 | 4.8 | 0.00 | 0.00 | 0.00 | 52 | 1020.0 |
| 20260508121118 | 13 | 71 | 1.6 | 8.0 | 0.00 | 0.00 | 0.00 | 55 | 1020.0 |
| 20260508120619 | 13 | 47 | 1.6 | 3.2 | 0.00 | 0.00 | 0.00 | 61 | 1020.0 |
| 20260508120115 | 13 | 89 | 0.0 | 3.2 | 0.00 | 0.00 | 0.00 | 62 | 1020.0 |
| 20260508115617 | 13 | 124 | 0.0 | 3.2 | 0.00 | 0.00 | 0.00 | 64 | 1020.0 |
| 20260508115119 | 13 | 139 | 3.2 | 3.2 | 0.00 | 0.00 | 0.00 | 65 | 1020.0 |
| 20260508114615 | 13 | 144 | 1.6 | 3.2 | 0.00 | 0.00 | 0.00 | 65 | 1020.0 |
| 20260508114116 | 13 | 116 | 1.6 | 3.2 | 0.00 | 0.00 | 0.00 | 64 | 1020.0 |
| 20260508113615 | 14 | 118 | 1.6 | 1.6 | 0.00 | 0.00 | 0.00 | 62 | 1020.0 |
| 20260508113115 | 14 | 141 | 0.0 | 1.6 | 0.00 | 0.00 | 0.00 | 63 | 1020.0 |
| 20260508112616 | 15 | 129 | 0.0 | 1.6 | 0.00 | 0.00 | 0.00 | 61 | 1020.0 |
| 20260508112118 | 15 | 124 | 0.0 | 0.0 | 0.00 | 0.00 | 0.00 | 61 | 1020.0 |
| 20260508111617 | 14 | 230 | 0.0 | 0.0 | 0.00 | 0.00 | 0.00 | 62 | 1020.0 |
| 20260508111116 | 15 | 89 | 0.0 | 1.6 | 0.00 | 0.00 | 0.00 | 60 | 1019.0 |
| 20260508110616 | 15 | 52 | 0.0 | 3.2 | 0.00 | 0.00 | 0.00 | 61 | 1020.0 |
| 20260508110116 | 14 | 147 | 0.0 | 3.2 | 0.00 | 0.00 | 0.00 | 63 | 1020.0 |
| 20260508105616 | 15 | 130 | 0.0 | 3.2 | 0.00 | 0.00 | 0.00 | 63 | 1020.0 |
| 20260508105116 | 15 | 118 | 3.2 | 3.2 | 0.00 | 0.00 | 0.00 | 61 | 1019.0 |
| 20260508104616 | 15 | 94 | 0.0 | 1.6 | 0.00 | 0.00 | 0.00 | 59 | 1020.0 |
| 20260508104115 | 15 | 326 | 0.0 | 3.2 | 0.00 | 0.00 | 0.00 | 58 | 1020.0 |
| 20260508103616 | 15 | 23 | 1.6 | 3.2 | 0.00 | 0.00 | 0.00 | 58 | 1020.0 |
| 20260508103115 | 15 | 32 | 3.2 | 4.8 | 0.00 | 0.00 | 0.00 | 58 | 1020.0 |
| 20260508102616 | 15 | 39 | 3.2 | 4.8 | 0.00 | 0.00 | 0.00 | 58 | 1019.0 |
| 20260508102117 | 15 | 25 | 1.6 | 4.8 | 0.00 | 0.00 | 0.00 | 58 | 1020.0 |
| 20260508101617 | 15 | 26 | 3.2 | 3.2 | 0.00 | 0.00 | 0.00 | 57 | 1020.0 |
| 20260508101116 | 15 | 20 | 0.0 | 3.2 | 0.00 | 0.00 | 0.00 | 57 | 1020.0 |
| 20260508100617 | 15 | 33 | 0.0 | 4.8 | 0.00 | 0.00 | 0.00 | 57 | 1020.0 |
| 20260508100118 | 15 | 44 | 0.0 | 4.8 | 0.00 | 0.00 | 0.00 | 57 | 1020.0 |
| 20260508095619 | 15 | 19 | 0.0 | 1.6 | 0.00 | 0.00 | 0.00 | 57 | 1019.0 |
| 20260508095116 | 15 | 40 | 0.0 | 3.2 | 0.00 | 0.00 | 0.00 | 57 | 1019.0 |
| 20260508094615 | 15 | 28 | 1.6 | 3.2 | 0.00 | 0.00 | 0.00 | 58 | 1019.0 |
| 20260508094116 | 15 | 354 | 0.0 | 4.8 | 0.00 | 0.00 | 0.00 | 58 | 1019.0 |
| 20260508093616 | 15 | 29 | 4.8 | 4.8 | 0.00 | 0.00 | 0.00 | 58 | 1019.0 |
| 20260508093117 | 15 | 25 | 3.2 | 4.8 | 0.00 | 0.00 | 0.00 | 56 | 1019.0 |
| 20260508092616 | 15 | 48 | 0.0 | 3.2 | 0.00 | 0.00 | 0.00 | 56 | 1019.0 |
| 20260508092115 | 16 | 39 | 3.2 | 3.2 | 0.00 | 0.00 | 0.00 | 56 | 1019.0 |
| 20260508091617 | 15 | 11 | 0.0 | 1.6 | 0.00 | 0.00 | 0.00 | 55 | 1019.0 |
| 20260508091119 | 15 | 17 | 0.0 | 3.2 | 0.00 | 0.00 | 0.00 | 55 | 1019.0 |
| 20260508090617 | 15 | 57 | 3.2 | 4.8 | 0.00 | 0.00 | 0.00 | 56 | 1019.0 |
| 20260508090115 | 15 | 323 | 0.0 | 3.2 | 0.00 | 0.00 | 0.00 | 56 | 1019.0 |
| 20260508085616 | 15 | 130 | 0.0 | 1.6 | 0.00 | 0.00 | 0.00 | 57 | 1019.0 |
| 20260508085117 | 15 | 81 | 1.6 | 1.6 | 0.00 | 0.00 | 0.00 | 54 | 1019.0 |
| 20260508084617 | 16 | 6 | 0.0 | 1.6 | 0.00 | 0.00 | 0.00 | 53 | 1019.0 |
| 20260508084117 | 16 | 326 | 0.0 | 1.6 | 0.00 | 0.00 | 0.00 | 53 | 1019.0 |
| 20260508083616 | 16 | 44 | 0.0 | 1.6 | 0.00 | 0.00 | 0.00 | 51 | 1019.0 |
| 20260508083118 | 16 | 29 | 0.0 | 3.2 | 0.00 | 0.00 | 0.00 | 49 | 1018.0 |
| 20260508082616 | 16 | 5 | 1.6 | 3.2 | 0.00 | 0.00 | 0.00 | 49 | 1019.0 |
| 20260508082117 | 16 | 358 | 1.6 | 3.2 | 0.00 | 0.00 | 0.00 | 49 | 1018.0 |
| 20260508081617 | 17 | 0 | 0.0 | 4.8 | 0.00 | 0.00 | 0.00 | 48 | 1018.0 |
| 20260508081116 | 17 | 29 | 1.6 | 6.4 | 0.00 | 0.00 | 0.00 | 47 | 1018.0 |
| 20260508080615 | 17 | 16 | 1.6 | 6.4 | 0.00 | 0.00 | 0.00 | 47 | 1018.0 |
| 20260508080117 | 17 | 22 | 8.0 | 8.0 | 0.00 | 0.00 | 0.00 | 46 | 1018.0 |
| 20260508075618 | 17 | 34 | 4.8 | 8.0 | 0.00 | 0.00 | 0.00 | 45 | 1018.0 |
| 20260508075115 | 17 | 34 | 4.8 | 8.0 | 0.00 | 0.00 | 0.00 | 44 | 1018.0 |
| 20260508074618 | 17 | 53 | 4.8 | 9.7 | 0.00 | 0.00 | 0.00 | 44 | 1018.0 |
| 20260508074118 | 17 | 26 | 6.4 | 11.3 | 0.00 | 0.00 | 0.00 | 43 | 1018.0 |
| 20260508073616 | 18 | 29 | 6.4 | 11.3 | 0.00 | 0.00 | 0.00 | 42 | 1018.0 |
| 20260508073119 | 18 | 52 | 4.8 | 6.4 | 0.00 | 0.00 | 0.00 | 41 | 1018.0 |
| 20260508072615 | 18 | 36 | 4.8 | 6.4 | 0.00 | 0.00 | 0.00 | 39 | 1018.0 |
| 20260508072116 | 18 | 19 | 4.8 | 8.0 | 0.00 | 0.00 | 0.00 | 37 | 1018.0 |
| 20260508071616 | 19 | 42 | 8.0 | 11.3 | 0.00 | 0.00 | 0.00 | 34 | 1018.0 |
| 20260508071115 | 20 | 55 | 4.8 | 4.8 | 0.00 | 0.00 | 0.00 | 29 | 1017.0 |
| 20260508070617 | 20 | 358 | 3.2 | 4.8 | 0.00 | 0.00 | 0.00 | 27 | 1017.0 |
| 20260508070117 | 20 | 9 | 0.0 | 3.2 | 0.00 | 0.00 | 0.00 | 27 | 1017.0 |
| 20260508065618 | 21 | 0 | 0.0 | 4.8 | 0.00 | 0.00 | 0.00 | 25 | 1017.0 |
| 20260508065117 | 21 | 31 | 3.2 | 3.2 | 0.00 | 0.00 | 0.00 | 25 | 1017.0 |
| 20260508064617 | 21 | 311 | 1.6 | 4.8 | 0.00 | 0.00 | 0.00 | 25 | 1017.0 |
| 20260508064117 | 22 | 287 | 3.2 | 4.8 | 0.00 | 0.00 | 0.00 | 24 | 1017.0 |
| 20260508063615 | 22 | 284 | 1.6 | 4.8 | 0.00 | 0.00 | 0.00 | 24 | 1017.0 |
| 20260508063117 | 21 | 311 | 0.0 | 8.0 | 0.00 | 0.00 | 0.00 | 24 | 1017.0 |
| 20260508062616 | 22 | 330 | 1.6 | 8.0 | 0.00 | 0.00 | 0.00 | 23 | 1017.0 |
| 20260508062117 | 22 | 297 | 0.0 | 6.4 | 0.00 | 0.00 | 0.00 | 24 | 1017.0 |
| 20260508061615 | 21 | 336 | 1.6 | 8.0 | 0.00 | 0.00 | 0.00 | 24 | 1017.0 |
| 20260508061115 | 22 | 296 | 6.4 | 8.0 | 0.00 | 0.00 | 0.00 | 23 | 1017.0 |
| 20260508060615 | 22 | 316 | 3.2 | 6.4 | 0.00 | 0.00 | 0.00 | 23 | 1017.0 |
| 20260508060117 | 22 | 287 | 0.0 | 8.0 | 0.00 | 0.00 | 0.00 | 21 | 1017.0 |
| 20260508055615 | 22 | 293 | 6.4 | 9.7 | 0.00 | 0.00 | 0.00 | 22 | 1017.0 |
| 20260508055117 | 22 | 14 | 1.6 | 6.4 | 0.00 | 0.00 | 0.00 | 21 | 1017.0 |
| 20260508054617 | 22 | 296 | 4.8 | 9.7 | 0.00 | 0.00 | 0.00 | 21 | 1017.0 |
| 20260508054116 | 22 | 299 | 6.4 | 14.5 | 0.00 | 0.00 | 0.00 | 21 | 1017.0 |
| 20260508053616 | 22 | 269 | 6.4 | 12.9 | 0.00 | 0.00 | 0.00 | 21 | 1017.0 |
| 20260508053117 | 22 | 270 | 3.2 | 6.4 | 0.00 | 0.00 | 0.00 | 21 | 1017.0 |
| 20260508052615 | 22 | 304 | 6.4 | 9.7 | 0.00 | 0.00 | 0.00 | 21 | 1018.0 |
| 20260508052116 | 21 | 282 | 6.4 | 8.0 | 0.00 | 0.00 | 0.00 | 22 | 1018.0 |
| 20260508051616 | 22 | 329 | 3.2 | 17.7 | 0.00 | 0.00 | 0.00 | 21 | 1017.0 |
| 20260508051115 | 22 | 324 | 4.8 | 11.3 | 0.00 | 0.00 | 0.00 | 22 | 1018.0 |
| 20260508050617 | 22 | 189 | 0.0 | 8.0 | 0.00 | 0.00 | 0.00 | 24 | 1018.0 |
| 20260508050116 | 22 | 287 | 3.2 | 9.7 | 0.00 | 0.00 | 0.00 | 24 | 1018.0 |
| 20260508045615 | 22 | 250 | 9.7 | 14.5 | 0.00 | 0.00 | 0.00 | 23 | 1018.0 |
| 20260508045116 | 22 | 254 | 4.8 | 9.7 | 0.00 | 0.00 | 0.00 | 24 | 1018.0 |
| 20260508044615 | 22 | 291 | 11.3 | 14.5 | 0.00 | 0.00 | 0.00 | 25 | 1018.0 |
| 20260508044115 | 22 | 304 | 3.2 | 11.3 | 0.00 | 0.00 | 0.00 | 25 | 1018.0 |
| 20260508043615 | 22 | 211 | 6.4 | 8.0 | 0.00 | 0.00 | 0.00 | 25 | 1018.0 |
| 20260508043116 | 21 | 317 | 3.2 | 6.4 | 0.00 | 0.00 | 0.00 | 25 | 1018.0 |
| 20260508042615 | 21 | 300 | 9.7 | 11.3 | 0.00 | 0.00 | 0.00 | 26 | 1018.0 |
| 20260508042116 | 21 | 289 | 9.7 | 11.3 | 0.00 | 0.00 | 0.00 | 25 | 1018.0 |
| 20260508041616 | 22 | 283 | 8.0 | 14.5 | 0.00 | 0.00 | 0.00 | 25 | 1018.0 |
| 20260508041115 | 22 | 294 | 4.8 | 12.9 | 0.00 | 0.00 | 0.00 | 25 | 1018.0 |
| 20260508040621 | 22 | 277 | 4.8 | 8.0 | 0.00 | 0.00 | 0.00 | 26 | 1018.0 |
| 20260508040127 | 21 | 297 | 4.8 | 8.0 | 0.00 | 0.00 | 0.00 | 25 | 1018.0 |
| 20260508035616 | 21 | 301 | 4.8 | 14.5 | 0.00 | 0.00 | 0.00 | 26 | 1018.0 |
| 20260508035116 | 21 | 309 | 4.8 | 11.3 | 0.00 | 0.00 | 0.00 | 25 | 1018.0 |
| 20260508034618 | 21 | 250 | 9.7 | 11.3 | 0.00 | 0.00 | 0.00 | 26 | 1018.0 |
| 20260508034115 | 21 | 286 | 1.6 | 11.3 | 0.00 | 0.00 | 0.00 | 25 | 1018.0 |
| 20260508033616 | 21 | 255 | 6.4 | 11.3 | 0.00 | 0.00 | 0.00 | 25 | 1018.0 |
| 20260508033118 | 21 | 228 | 3.2 | 9.7 | 0.00 | 0.00 | 0.00 | 26 | 1018.0 |
| 20260508032615 | 21 | 251 | 4.8 | 9.7 | 0.00 | 0.00 | 0.00 | 26 | 1018.0 |
| 20260508032118 | 20 | 265 | 3.2 | 14.5 | 0.00 | 0.00 | 0.00 | 25 | 1018.0 |
| 20260508031615 | 21 | 283 | 6.4 | 14.5 | 0.00 | 0.00 | 0.00 | 24 | 1018.0 |
| 20260508031115 | 21 | 263 | 3.2 | 11.3 | 0.00 | 0.00 | 0.00 | 25 | 1018.0 |
| 20260508030616 | 20 | 260 | 3.2 | 8.0 | 0.00 | 0.00 | 0.00 | 27 | 1018.0 |
| 20260508030115 | 20 | 288 | 6.4 | 11.3 | 0.00 | 0.00 | 0.00 | 28 | 1019.0 |
| 20260508025616 | 20 | 342 | 3.2 | 8.0 | 0.00 | 0.00 | 0.00 | 28 | 1018.0 |
| 20260508025116 | 20 | 153 | 6.4 | 6.4 | 0.00 | 0.00 | 0.00 | 28 | 1019.0 |
| 20260508024616 | 20 | 296 | 9.7 | 11.3 | 0.00 | 0.00 | 0.00 | 27 | 1019.0 |